User: anonymous   Login
Location: Unspecified
(0.0000°N, 0.0000°E)
Time: 20:02:41
(UTC+00:00)
Language:

STARLINK-31999 - Orbit

View from above orbital plane
View from above orbital plane
View from above satellite
View from above satellite

Ground track
Ground track

The orbit is defined by the following mean orbital elements,

1 60101U          26145.44025613 +.00000000 +00000-0 +17510-4 0 00002
2 60101  53.1612  40.8868 0001273  86.1737 273.9409 15.30190707    04
Epoch (UTC): 25 May 2026 10:33:58
Eccentricity: 0.0001273
inclination: 53.1612°
perigee height: 474 km
apogee height: 476 km
right ascension of ascending node: 40.8868°
argument of perigee: 86.1737°
revolutions per day: 15.30190707
mean anomaly at epoch: 273.9409°

The dashed part of the orbit path shows where the satellite is in the earth's shadow,  

DLR